[[{"header":{"parameterUnit":"m.s-1","parameterCategory":1,"la1":30.2991,"la2":30.254,"lo1":-89.0895,"lo2":-89.0444,"dy":0.0017,"dx":0.0017,"nx":28,"ny":28,"refTime":"2025-07-02T21:00:00:Z","depth":0,"parameterNumber":2,"parameterNumberName":"U-component_of_WINDS"},"data":[0,0,0,0,0,0,0,0,0,0,0,0,0,0,0,0,0,0,0,0,0,0,0,0,0,0,0,0,0,0,0,0,0,0,0,0,0,0,0,0,0,0,0,0,0,0,0,0,0,0,0,0,0,0,0,0,0,0,0.6607,0.6607,0,0.6553,0.6552,0.6552,0.6497,0.6496,0.6495,0.6495,0.6443,0.6443,0.6442,0,0,0,0,0,0,0,0,0,0,0,0,0,0.6666,0.6665,0.6607,0.6607,0.6606,0.6553,0.6552,0.6552,0.6497,0.6496,0.6495,0.6494,0.6444,0.6443,0.6442,0,0,0,0,0,0,0,0,0,0,0,0,0,0.6629,0.6665,0.6607,0.6572,0.6568,0.6553,0.6552,0.6551,0.6497,0.6496,0.6495,0.6494,0.6444,0.6443,0.6442,0.6459,0,0,0.6439,0.6439,0,0,0,0,0,0,0,0,0.6631,0.6627,0.6578,0.6575,0.657,0.653,0.6554,0.652,0.6498,0.6524,0.6495,0.6493,0.6474,0.647,0.6463,0.6456,0.6454,0.6439,0.6438,0.6438,0.6438,0,0,0,0,0,0,0,0.6634,0.6629,0.6586,0.6577,0.6573,0.656,0.6553,0.6548,0.6506,0.6522,0.6518,0.6512,0.6471,0.6464,0.6461,0.6453,0.6439,0.6438,0.6437,0.6437,0.6457,0.6458,0,0,0,0,0,0,0.6641,0.6632,0.6588,0.6584,0.6599,0.656,0.6553,0.6545,0.6506,0.6499,0.6513,0.651,0.6466,0.6462,0.6459,0.6476,0.6438,0.6437,0.6436,0.6456,0.6458,0.6459,0,0,0,0,0,0,0.6643,0.6638,0.659,0.6607,0.66,0.656,0.6551,0.6544,0.6536,0.6499,0.6492,0.6513,0.6465,0.646,0.6459,0.6474,0.6437,0.6436,0.6455,0.6457,0.6458,0.6511,0,0,0,0,0,0,0.6645,0.6639,0.6644,0.6607,0.6599,0.659,0.6552,0.6544,0.6534,0.6529,0.6497,0.6491,0.6464,0.646,0.6458,0.6472,0.6435,0.6454,0.6456,0.6458,0.6508,0.6515,0.652,0,0,0,0,0,0.6647,0.6662,0.6645,0.664,0.6605,0.6591,0.6586,0.6554,0.6536,0.6541,0.6517,0.6492,0.6472,0.6461,0.6457,0.6471,0.6452,0.6455,0.6458,0.6505,0.6513,0.652,0,0,0,0,0,0,0.6704,0.6657,0.6637,0.6641,0.662,0.6582,0.6588,0.6563,0.6549,0.6545,0.6506,0.6499,0.6503,0.6486,0.6475,0.6485,0.6459,0.6461,0.6496,0.6503,0.6509,0.6514,0.6434,0,0,0,0,0,0.6717,0.6709,0.6668,0.6675,0.6665,0.6628,0.6621,0.6598,0.6575,0.6567,0.6543,0.6523,0.6512,0.6506,0.6495,0.6504,0.6497,0.6512,0.6518,0.6523,0.6526,0.6531,0.6537,0.6467,0.6467,0.6467,0,0,0.6744,0.6717,0.6715,0.6686,0.6667,0.666,0.6622,0.6616,0.6611,0.6567,0.6564,0.6545,0.652,0.6525,0.6525,0.6511,0.6543,0.6526,0.6531,0.6531,0.6534,0.6541,0.6547,0.6469,0.6469,0.6468,0,0,0.679,0.6768,0.6772,0.6753,0.6724,0.6699,0.67,0.6665,0.665,0.6646,0.6612,0.6605,0.6588,0.6572,0.6561,0.6599,0.6575,0.6596,0.6629,0.6633,0.6639,0.6644,0.6659,0.6664,0.6598,0.6598,0.6598,0,0.6828,0.6816,0.6777,0.6773,0.6762,0.6718,0.6723,0.6706,0.6676,0.667,0.6654,0.663,0.661,0.661,0.6619,0.6612,0.6612,0.6601,0.6641,0.6645,0.6649,0.6663,0.6669,0.6601,0.6601,0.6601,0.66,0,0.6864,0.6856,0.6862,0.6832,0.6821,0.6821,0.6784,0.6777,0.6754,0.6731,0.6727,0.6701,0.6683,0.6681,0.6659,0.6678,0.667,0.6648,0.6621,0.6659,0.6672,0.6677,0.6605,0.6604,0.6603,0.6603,0,0,0.6949,0.6895,0.6898,0.6884,0.6847,0.6841,0.6839,0.6819,0.6815,0.6795,0.6794,0.6778,0.6757,0.6745,0.672,0.6724,0.6757,0.6701,0.67,0.6714,0.6778,0.6797,0.6803,0.6739,0.674,0.6741,0.678,0,0.699,0.6983,0.6947,0.6951,0.6944,0.6901,0.6899,0.6877,0.6855,0.6845,0.6821,0.6811,0.6783,0.6775,0.6777,0.6752,0.6769,0.6749,0.674,0.674,0.675,0.6809,0.683,0.6869,0.6785,0.6785,0.6786,0,0.7039,0.702,0.7023,0.6986,0.6981,0.698,0.6959,0.695,0.6924,0.6908,0.6893,0.6864,0.6861,0.6833,0.6828,0.6815,0.6808,0.6795,0.6796,0.6797,0.6768,0.6814,0.688,0.6887,0.6793,0.6792,0.6792,0,0.7103,0.7077,0.7076,0.7065,0.7021,0.7021,0.7003,0.6976,0.6966,0.6948,0.6941,0.6923,0.6914,0.6901,0.6869,0.6851,0.6868,0.6838,0.6856,0.6857,0.6864,0.6865,0.6933,0.6856,0.6856,0.6855,0.6855,0,0.7155,0.7159,0.7104,0.7104,0.7106,0.7065,0.7069,0.7047,0.7023,0.7018,0.6979,0.6975,0.6931,0.6923,0.6897,0.6897,0.6893,0.6881,0.6874,0.6886,0.6888,0.6884,0.6881,0.6857,0.6857,0.6856,0.6856,0,0.7229,0.7192,0.7187,0.7145,0.7134,0.7139,0.7103,0.7101,0.7074,0.7069,0.7065,0.7025,0.7012,0.6977,0.6957,0.6939,0.6949,0.6935,0.6957,0.6954,0.6975,0.6975,0.7045,0.7053,0.6968,0.6969,0.697,0,0.7267,0.7268,0.7225,0.7218,0.7201,0.7191,0.718,0.7138,0.7129,0.7098,0.71,0.7084,0.707,0.7053,0.7023,0.7006,0.6994,0.7019,0.6991,0.7003,0.6997,0.6998,0.6999,0.7027,0.7028,0.7029,0.703,0,0.7338,0.7318,0.7304,0.7282,0.727,0.7252,0.7231,0.7228,0.7181,0.7173,0.7159,0.7147,0.7125,0.7111,0.7089,0.7071,0.7044,0.7038,0.7042,0.7055,0.7069,0.7064,0.6977,0.7037,0.7037,0.7036,0.7036,0.7035,0.7396,0.7396,0.7365,0.735,0.7329,0.731,0.7306,0.7278,0.7266,0.7243,0.7219,0.7208,0.7181,0.7149,0.7133,0.7125,0.711,0.7115,0.7117,0.712,0.7126,0.7067,0.712,0.712,0.712,0.7119,0.7119,0,0.7467,0.7445,0.7431,0.7402,0.739,0.7361,0.7336,0.7329,0.732,0.7296,0.7281,0.7265,0.725,0.7217,0.72,0.7199,0.7186,0.7196,0.7198,0.7194,0.7139,0.7138,0.7207,0.7207,0.7207,0.7207,0.7207,0.7207,0.7504,0.7501,0.7478,0.7465,0.7443,0.743,0.7419,0.7402,0.7382,0.7366,0.7352,0.733,0.7302,0.7282,0.7267,0.7258,0.7255,0.727,0.7257,0.7206,0.7198,0.719,0.719,0.7268,0.7269,0.7313,0.7314,0.7314]},{"header":{"parameterUnit":"m.s-1","parameterCategory":1,"la1":30.2991,"la2":30.254,"lo1":-89.0895,"lo2":-89.0444,"dy":0.0017,"dx":0.0017,"nx":28,"ny":28,"refTime":"2025-07-02T21:00:00:Z","depth":0,"parameterNumber":3,"parameterNumberName":"V-component_of_WINDS"},"data":[0,0,0,0,0,0,0,0,0,0,0,0,0,0,0,0,0,0,0,0,0,0,0,0,0,0,0,0,0,0,0,0,0,0,0,0,0,0,0,0,0,0,0,0,0,0,0,0,0,0,0,0,0,0,0,0,0,0,-0.6407,-0.6403,0,-0.6042,-0.6038,-0.6034,-0.586,-0.586,-0.5861,-0.5861,-0.5482,-0.5472,-0.5462,0,0,0,0,0,0,0,0,0,0,0,0,0,-0.6947,-0.6938,-0.6407,-0.6402,-0.6398,-0.6043,-0.6038,-0.6033,-0.586,-0.586,-0.5861,-0.5861,-0.5485,-0.5473,-0.5461,0,0,0,0,0,0,0,0,0,0,0,0,0,-0.6661,-0.6936,-0.6408,-0.6269,-0.6253,-0.6044,-0.6037,-0.6031,-0.586,-0.586,-0.5861,-0.5861,-0.5489,-0.5474,-0.5459,-0.5359,0,0,-0.5412,-0.5406,0,0,0,0,0,0,0,0,-0.6677,-0.6641,-0.6294,-0.6278,-0.626,-0.5997,-0.6089,-0.5806,-0.586,-0.6009,-0.5861,-0.5861,-0.5653,-0.5624,-0.5555,-0.5341,-0.5325,-0.5411,-0.5402,-0.5395,-0.5391,0,0,0,0,0,0,0,-0.6697,-0.6656,-0.6262,-0.6289,-0.6268,-0.6223,-0.6183,-0.6035,-0.5834,-0.5996,-0.5983,-0.5942,-0.5643,-0.557,-0.5545,-0.5319,-0.5411,-0.5398,-0.5388,-0.5382,-0.5003,-0.5002,0,0,0,0,0,0,-0.6741,-0.6674,-0.6274,-0.6251,-0.6474,-0.6213,-0.6168,-0.6081,-0.5835,-0.5798,-0.5942,-0.5936,-0.5596,-0.5563,-0.5531,-0.5395,-0.5395,-0.5381,-0.5372,-0.5003,-0.5002,-0.5001,0,0,0,0,0,0,-0.6753,-0.6707,-0.6289,-0.6459,-0.6402,-0.6203,-0.6107,-0.6074,-0.6,-0.5794,-0.5757,-0.5905,-0.5595,-0.5552,-0.5403,-0.538,-0.5374,-0.536,-0.5004,-0.5003,-0.5002,-0.5125,0,0,0,0,0,0,-0.6769,-0.6712,-0.6673,-0.6459,-0.6394,-0.6169,-0.6106,-0.6066,-0.5975,-0.5962,-0.5749,-0.5714,-0.5592,-0.5427,-0.5387,-0.5358,-0.5348,-0.5005,-0.5004,-0.5002,-0.5122,-0.5128,-0.5133,0,0,0,0,0,-0.6789,-0.6722,-0.6672,-0.6625,-0.6341,-0.6168,-0.613,-0.5993,-0.5974,-0.5932,-0.5799,-0.5721,-0.5389,-0.5413,-0.5367,-0.5333,-0.5006,-0.5004,-0.5002,-0.512,-0.5127,-0.5133,0,0,0,0,0,0,-0.6936,-0.6691,-0.6634,-0.6495,-0.6354,-0.6139,-0.6082,-0.6005,-0.5865,-0.5859,-0.5693,-0.5646,-0.5511,-0.5407,-0.5438,-0.5222,-0.519,-0.5179,-0.5295,-0.53,-0.5306,-0.5333,-0.5335,0,0,0,0,0,-0.6953,-0.6835,-0.6626,-0.6524,-0.6456,-0.6282,-0.6201,-0.6108,-0.5954,-0.5893,-0.5749,-0.5602,-0.5464,-0.5376,-0.5238,-0.5107,-0.5057,-0.5061,-0.5067,-0.5072,-0.5064,-0.4985,-0.4984,-0.4995,-0.4995,-0.4995,0,0,-0.6985,-0.6837,-0.6772,-0.655,-0.6429,-0.6309,-0.6233,-0.6108,-0.6016,-0.5873,-0.5723,-0.5613,-0.5437,-0.5296,-0.5227,-0.5205,-0.505,-0.507,-0.5076,-0.5064,-0.4983,-0.4982,-0.4982,-0.4994,-0.4994,-0.4994,0,0,-0.6983,-0.686,-0.6761,-0.6642,-0.6461,-0.6346,-0.6322,-0.6118,-0.604,-0.5888,-0.5778,-0.5665,-0.5432,-0.531,-0.5218,-0.517,-0.5092,-0.513,-0.5159,-0.5084,-0.5083,-0.5081,-0.5063,-0.5058,-0.5123,-0.5123,-0.5123,0,-0.7045,-0.6861,-0.6719,-0.66,-0.6505,-0.6372,-0.6269,-0.616,-0.5943,-0.5879,-0.5859,-0.5563,-0.5435,-0.5263,-0.5252,-0.5182,-0.5148,-0.5153,-0.5095,-0.5092,-0.5088,-0.5068,-0.5062,-0.5129,-0.5128,-0.5128,-0.5127,0,-0.6946,-0.682,-0.6761,-0.6557,-0.6455,-0.6345,-0.6184,-0.6098,-0.6013,-0.59,-0.5745,-0.5588,-0.5415,-0.5367,-0.5283,-0.5183,-0.5175,-0.5127,-0.5091,-0.5095,-0.5074,-0.5065,-0.5137,-0.5135,-0.5133,-0.5132,0,0,-0.7025,-0.6744,-0.6725,-0.663,-0.6421,-0.6319,-0.6203,-0.6035,-0.5964,-0.5818,-0.5715,-0.5521,-0.5475,-0.5371,-0.5272,-0.5207,-0.5177,-0.5166,-0.5159,-0.5172,-0.5055,-0.5092,-0.5085,-0.5125,-0.5123,-0.5121,-0.5069,0,-0.6992,-0.6779,-0.6647,-0.6486,-0.6367,-0.6239,-0.6137,-0.5997,-0.5888,-0.5769,-0.5647,-0.5511,-0.5462,-0.5398,-0.5328,-0.5196,-0.5151,-0.5198,-0.5025,-0.5021,-0.5072,-0.5074,-0.5112,-0.507,-0.506,-0.5059,-0.5058,0,-0.6925,-0.6785,-0.6613,-0.6416,-0.6361,-0.6272,-0.6108,-0.5996,-0.5834,-0.5759,-0.5643,-0.5544,-0.5413,-0.539,-0.5208,-0.5243,-0.5164,-0.5089,-0.5083,-0.506,-0.5038,-0.505,-0.5054,-0.5048,-0.5043,-0.5044,-0.5045,0,-0.6998,-0.6766,-0.6632,-0.6555,-0.6324,-0.6264,-0.6164,-0.6002,-0.591,-0.5766,-0.5703,-0.5546,-0.5459,-0.5339,-0.5199,-0.5195,-0.503,-0.4995,-0.4962,-0.4966,-0.4932,-0.4935,-0.4922,-0.4885,-0.4885,-0.4885,-0.4885,0,-0.6974,-0.6873,-0.6662,-0.658,-0.6463,-0.6312,-0.6199,-0.6089,-0.5946,-0.5839,-0.5718,-0.562,-0.5442,-0.5321,-0.521,-0.5075,-0.5037,-0.4971,-0.4943,-0.4981,-0.4989,-0.4926,-0.4925,-0.4883,-0.4884,-0.4884,-0.4884,0,-0.7035,-0.689,-0.6736,-0.653,-0.6475,-0.6398,-0.622,-0.6134,-0.6019,-0.5885,-0.5844,-0.5663,-0.5514,-0.5363,-0.5162,-0.5088,-0.4955,-0.4917,-0.5011,-0.4994,-0.4969,-0.4973,-0.4913,-0.4897,-0.4874,-0.4874,-0.4875,0,-0.7029,-0.6948,-0.6734,-0.6655,-0.6558,-0.6431,-0.6337,-0.6185,-0.6091,-0.59,-0.5837,-0.568,-0.5546,-0.5314,-0.5163,-0.5009,-0.4965,-0.4955,-0.4941,-0.4982,-0.4963,-0.4969,-0.4959,-0.496,-0.4961,-0.4962,-0.4963,0,-0.7032,-0.6965,-0.6834,-0.6678,-0.657,-0.6439,-0.6304,-0.6245,-0.6066,-0.5966,-0.5814,-0.571,-0.5506,-0.535,-0.5178,-0.5073,-0.4987,-0.4969,-0.4952,-0.4989,-0.5046,-0.5013,-0.5024,-0.497,-0.4969,-0.4969,-0.4968,-0.4968,-0.7057,-0.698,-0.6817,-0.6675,-0.6558,-0.6435,-0.6344,-0.6218,-0.6089,-0.5911,-0.5829,-0.5676,-0.5514,-0.5274,-0.5171,-0.5047,-0.5024,-0.5001,-0.4994,-0.4991,-0.4999,-0.5068,-0.5015,-0.5015,-0.5014,-0.5014,-0.5014,0,-0.7054,-0.6943,-0.6814,-0.663,-0.6518,-0.645,-0.6296,-0.6206,-0.6073,-0.5931,-0.5802,-0.5626,-0.5475,-0.5313,-0.5152,-0.5084,-0.5041,-0.5047,-0.5049,-0.5026,-0.503,-0.5059,-0.5084,-0.5084,-0.5084,-0.5084,-0.5084,-0.5084,-0.7038,-0.6903,-0.6816,-0.6621,-0.6509,-0.6359,-0.6278,-0.6162,-0.6047,-0.5857,-0.5731,-0.5628,-0.5476,-0.5303,-0.5161,-0.5117,-0.5062,-0.508,-0.5025,-0.5031,-0.5026,-0.5021,-0.5047,-0.507,-0.507,-0.503,-0.503,-0.5029]}]]